Temperature
18 17 16 17 17 18 17 17 17 17 18 17 17 17 17 17 17 17 17 17 17 18 18 18 17 17 17 17 17 16 16 16 16 16 16 15 15 15 15 15 15 15 15 15
17 17 18 18 18 18 18 17 17 17 18 18 17 17 17 16 17 17 17 18 18 18 18 17 17 17 17 17 17 16 16 16 16 16 16 15 15 15 15 15 15 15 15 15
17 18 19 19 18 18 18 17 17 17 17 17 17 17 17 16 17 17 18 18 18 18 18 18 17 17 17 17 17 16 16 16 16 16 16 15 15 15 15 15 15 15 14 14
18 18 19 19 18 18 17 18 18 18 17 16 17 16 16 16 16 16 17 17 18 18 18 18 18 17 17 17 17 16 16 16 16 16 15 15 15 15 15 15 15 14 14 14
18 18 19 18 18 18 18 18 18 17 16 16 16 16 16 16 16 16 16 17 18 18 18 18 18 18 17 17 17 17 16 16 16 16 15 15 15 15 15 15 15 14 14 14
18 19 19 18 19 19 18 17 17 15 15 16 16 16 16 15 16 16 16 17 18 18 18 18 18 18 17 17 17 16 16 16 16 16 16 15 15 15 15 15 15 14 14 14
18 19 19 19 18 18 17 16 16 16 15 15 16 16 16 17 16 17 17 18 18 18 18 18 18 18 17 17 17 17 16 16 16 16 16 15 15 15 15 15 15 14 14 14
17 17 18 19 18 18 17 16 16 16 15 15 16 15 16 17 17 18 18 18 18 18 18 18 18 18 18 17 17 17 16 16 16 16 16 16 15 15 15 15 15 14 14 14
17 17 19 19 19 18 17 16 16 15 16 15 15 16 16 17 17 17 17 17 18 18 18 18 18 18 18 17 17 17 17 17 16 16 16 16 15 15 15 15 15 14 14 14
17 18 19 18 18 18 17 15 14 15 16 16 16 16 16 17 17 16 16 17 18 18 18 18 18 18 18 17 17 17 17 16 16 16 16 16 15 15 15 15 15 14 14 14
18 17 18 18 18 18 17 16 15 14 15 15 16 16 17 17 17 16 16 17 18 18 18 18 18 18 17 17 17 17 17 16 16 16 16 15 15 15 15 15 14 14 14 14
17 16 16 18 18 18 18 17 15 16 15 15 15 16 18 17 17 17 17 18 18 18 18 18 18 18 17 17 17 17 17 16 16 16 16 15 15 15 15 14 14 14 14 14
17 16 16 17 17 18 18 17 16 15 14 14 15 17 17 17 17 18 17 18 18 18 18 18 17 17 17 17 17 17 17 16 16 16 16 15 15 15 15 14 14 14 14 14
17 15 16 17 17 17 17 17 16 16 15 15 15 16 17 17 16 17 17 18 18 18 18 18 17 17 17 17 17 17 17 16 16 16 15 15 15 15 15 14 14 14 14 14
17 17 17 17 18 18 18 18 17 16 16 16 16 17 17 17 17 17 17 17 17 17 17 17 18 17 17 17 17 17 16 16 16 16 15 15 15 15 15 14 14 14 14 13
16 17 17 18 18 18 18 17 17 17 17 16 17 17 17 17 17 17 17 17 17 17 18 18 18 17 17 17 17 17 16 16 16 16 15 15 15 14 14 14 14 14 13 13
15 16 16 16 17 18 17 18 17 17 17 17 17 18 17 16 16 16 16 17 17 18 18 18 18 18 18 17 17 17 16 16 16 16 15 15 15 14 14 14 14 13 13 13
15 15 14 15 17 18 18 18 18 17 17 17 17 17 17 17 18 18 18 18 18 18 18 18 18 18 18 17 17 16 16 16 16 15 15 15 15 14 14 14 14 13 13 13
14 14 14 14 16 17 18 18 18 18 18 17 17 17 17 17 17 17 18 18 19 19 19 19 18 18 18 17 17 16 16 16 16 15 15 15 15 14 14 14 13 13 13 13
13 14 14 14 16 16 18 18 19 18 18 18 17 17 16 16 15 16 18 18 18 18 18 18 18 18 18 17 17 16 16 16 16 15 15 15 14 14 14 14 13 13 13 13
15 14 14 14 15 15 17 18 18 18 18 19 19 18 17 16 17 19 19 19 18 18 18 18 18 18 17 17 17 16 16 16 16 15 15 15 14 14 14 13 13 13 12 12
14 14 13 13 15 16 17 17 17 18 20 20 20 19 19 19 19 19 19 19 18 18 18 18 17 17 17 17 16 16 16 16 15 15 15 14 14 14 13 13 13 12 12 12
13 14 13 14 15 16 17 18 19 20 20 20 20 20 19 19 18 19 18 18 18 18 18 17 17 17 17 16 16 16 16 15 15 15 14 14 14 13 13 13 13 12 12 12
13 13 13 13 14 16 18 19 20 20 20 20 20 20 19 19 19 18 18 18 18 17 17 17 17 17 16 16 16 16 15 15 15 15 14 14 13 13 13 12 12 12 12 11
14 12 13 13 14 16 18 19 19 20 20 20 20 19 19 19 18 18 18 17 17 17 17 17 16 16 16 16 16 15 15 15 15 14 14 14 13 13 13 12 12 12 11 11
12 13 13 14 16 15 17 19 19 19 19 19 19 19 19 19 18 18 17 17 17 17 16 16 16 16 15 15 15 15 15 14 14 14 14 13 13 12 12 12 11 11 11 10
Wind_Speed
4 5 1 4 4 4 5 4 2 0 1 3 3 2 3 4 5 6 6 6 6 5 3 4 5 5 5 5 5 5 6 4 4 4 3 3 3 2 3 5 8 9 9 8
5 2 3 3 4 5 5 4 2 1 2 3 2 2 3 4 6 7 8 8 8 5 4 4 5 4 4 4 4 5 5 5 4 3 3 3 3 2 1 3 7 9 9 8
3 2 1 5 5 4 3 4 4 3 3 3 2 3 1 2 3 4 6 6 7 9 8 7 6 5 5 4 5 5 4 4 4 4 4 4 4 3 3 4 4 7 8 8
1 1 3 4 3 4 2 2 5 5 4 1 1 2 4 3 3 5 7 7 8 8 7 7 7 6 6 5 4 5 5 5 4 5 5 5 4 2 1 1 2 4 8 8
1 1 3 3 3 5 3 3 5 4 4 1 1 1 5 1 5 8 8 9 9 9 9 9 8 8 6 5 5 5 5 5 4 5 6 6 4 2 1 2 3 4 5 8
2 1 2 3 1 5 6 6 6 5 4 1 2 3 5 4 7 6 8 9 9 9 9 8 6 6 5 5 4 5 5 4 4 5 5 5 6 4 4 3 3 3 3 4
2 2 0 3 4 3 5 5 3 3 3 3 2 2 6 6 6 8 10 10 10 10 10 9 8 7 6 6 5 5 6 4 4 5 4 5 5 5 4 3 2 2 2 2
2 3 2 2 5 5 4 6 5 3 3 4 2 4 6 5 4 5 7 8 9 9 10 10 10 9 8 7 6 6 6 5 4 5 4 4 4 3 3 3 2 2 1 1
6 3 1 1 2 7 6 3 5 5 2 1 4 5 6 1 1 2 5 7 9 10 10 10 9 9 8 8 7 7 7 5 5 5 5 4 4 4 3 3 2 2 1 2
7 3 1 1 4 3 5 7 5 4 2 2 4 4 4 4 3 2 5 8 8 8 9 9 9 8 8 7 6 6 6 6 5 5 5 5 4 4 3 3 3 2 2 3
5 4 0 2 4 6 5 4 4 4 4 3 2 6 5 7 6 6 7 8 9 10 10 9 8 7 7 6 6 6 6 5 5 5 5 5 4 4 4 3 2 2 3 3
4 5 2 4 3 4 5 7 7 5 3 3 3 6 5 6 5 6 6 6 8 9 8 8 8 8 7 7 6 6 6 6 5 5 6 5 5 5 4 3 2 3 3 3
7 6 3 4 4 0 2 4 5 5 4 4 4 6 3 0 2 4 5 6 7 8 8 7 7 8 8 7 7 6 6 6 5 6 6 6 5 5 4 3 2 3 3 3
6 5 6 7 6 5 3 4 6 6 4 5 7 7 7 4 3 3 4 6 7 8 9 9 8 8 8 7 7 7 6 6 6 7 6 6 5 5 4 3 3 3 3 3
6 4 4 4 3 4 4 5 7 7 8 8 8 8 10 7 6 6 6 6 7 8 8 9 9 8 8 7 7 7 6 6 7 7 6 6 5 4 4 4 3 3 3 4
4 4 3 1 1 3 3 5 7 7 6 7 6 8 8 4 4 4 6 8 9 9 9 9 9 9 9 9 9 8 7 7 7 8 6 6 5 5 4 4 4 4 3 3
4 6 4 2 2 1 5 7 8 6 6 8 9 9 4 3 6 8 9 9 10 9 9 10 10 10 10 9 9 9 8 8 8 7 6 6 6 5 4 4 4 4 3 3
7 6 4 2 2 4 8 4 6 6 6 7 7 6 6 7 5 5 6 9 9 9 9 9 9 8 8 8 8 8 7 8 7 7 6 6 6 6 5 5 4 3 3 3
5 7 5 4 3 6 7 3 5 5 5 6 8 6 4 3 3 1 4 7 9 9 9 8 9 8 8 9 9 10 8 7 7 6 6 6 7 6 6 5 4 3 3 3
5 5 6 5 4 6 8 4 3 4 4 5 7 6 5 7 3 5 5 6 6 6 7 7 7 8 9 8 10 10 9 8 8 7 7 6 7 7 7 6 5 3 3 3
4 4 5 5 5 8 7 3 4 4 7 3 6 7 8 8 6 4 5 6 6 6 7 8 9 8 8 9 10 10 8 8 7 6 6 6 6 6 6 5 4 4 4 4
8 6 6 5 4 8 4 5 7 7 3 2 5 6 7 5 3 4 6 7 7 7 7 8 8 7 7 9 10 9 8 7 7 7 7 6 6 5 5 6 4 4 5 5
6 8 7 8 8 5 3 6 5 3 3 3 4 5 7 6 4 5 5 6 7 7 7 7 8 7 6 7 9 10 7 8 8 8 7 6 5 5 5 6 6 4 4 4
3 3 4 3 6 6 5 4 3 3 4 3 4 5 7 6 6 6 6 6 6 6 7 7 8 8 6 6 6 7 7 9 9 8 7 6 6 5 4 4 4 4 4 4
5 5 3 4 6 4 5 4 4 2 2 2 3 4 6 7 6 7 7 7 6 6 6 7 8 7 6 6 5 6 7 9 9 8 6 6 5 6 5 4 3 4 4 5
5 7 7 7 7 6 6 4 3 3 3 4 4 4 4 6 7 7 6 6 6 7 6 6 6 6 6 6 6 6 7 8 9 7 6 5 5 4 4 4 2 2 2 3
Wind_Direction
39 70 148 205 179 157 134 125 115 343 131 118 150 205 219 186 177 185 190 187 183 185 178 151 137 129 122 119 118 120 120 119 117 106 98 88 67 38 29 34 42 46 51 55
46 1 251 150 129 119 117 118 118 65 87 116 155 240 232 194 196 196 193 194 189 175 162 155 139 136 140 145 139 131 135 135 131 123 116 112 109 73 42 27 38 40 44 48
141 243 129 123 131 127 130 155 163 145 79 53 82 334 279 238 200 201 196 190 186 184 180 173 162 156 152 157 162 153 146 136 127 117 104 86 63 47 32 23 18 20 37 47
172 237 129 121 142 140 164 187 148 132 110 351 82 281 279 237 216 213 206 195 191 185 179 175 168 164 168 175 163 145 141 131 129 127 122 121 117 107 54 17 16 22 37 44
234 156 134 147 187 153 160 116 108 110 118 57 25 173 285 233 226 229 216 204 196 186 179 176 174 172 170 162 154 147 132 123 129 132 132 123 113 112 84 58 48 34 29 37
232 228 172 177 119 127 123 85 71 56 74 354 238 180 274 225 212 218 213 205 194 184 177 172 166 156 155 147 143 139 131 126 132 132 131 133 131 124 106 80 64 37 25 25
356 332 220 132 96 80 101 97 51 14 17 261 248 197 249 243 219 212 208 202 190 180 173 169 166 165 163 159 156 149 144 145 142 134 132 137 139 136 134 130 115 86 47 27
159 275 239 168 157 162 153 135 152 183 222 285 291 235 256 259 246 222 200 187 177 176 175 177 177 173 171 170 165 161 160 156 151 146 146 140 137 133 133 136 132 122 105 55
173 234 274 180 142 135 130 144 156 131 152 273 278 284 301 307 314 164 169 170 176 178 178 178 174 172 172 172 175 172 166 157 157 156 145 138 135 131 133 127 117 115 107 80
155 171 243 162 91 53 137 142 111 122 148 268 291 273 248 262 255 205 180 183 185 178 176 174 172 173 173 173 172 165 161 162 158 154 152 143 136 132 132 119 109 103 90 76
139 145 3 116 177 173 127 123 123 127 155 166 269 277 229 218 217 207 204 194 185 180 179 177 174 170 165 161 161 159 156 148 146 147 140 130 128 122 116 114 113 108 89 84
139 125 186 250 259 178 164 167 151 155 198 179 195 271 271 222 214 197 198 192 182 176 173 170 166 161 162 164 163 163 158 154 154 145 135 130 123 116 113 110 107 100 94 83
140 120 95 355 349 39 169 169 160 135 129 164 188 264 307 247 202 194 185 181 172 163 160 158 160 168 172 170 168 168 164 161 149 138 134 130 128 129 132 130 117 104 100 90
124 123 162 191 217 195 200 182 162 143 164 202 222 249 284 277 241 215 188 175 167 165 165 165 171 174 175 172 170 167 163 158 148 142 142 143 149 149 146 133 119 111 108 101
121 157 200 226 220 179 203 197 180 188 193 198 227 231 250 241 221 206 182 165 161 168 170 172 176 178 174 170 169 165 161 158 153 147 151 159 152 137 127 121 116 108 103 103
123 153 157 277 236 204 240 236 207 210 208 219 238 257 251 231 185 176 174 171 175 181 182 178 174 174 177 178 175 168 166 163 154 155 160 154 141 131 128 127 120 110 104 97
145 138 134 248 304 32 274 236 208 202 202 190 216 238 224 200 198 195 189 186 187 185 180 178 180 182 182 180 174 172 169 157 154 157 156 153 147 143 145 138 125 124 124 110
144 132 136 155 84 240 249 242 192 200 228 212 223 234 205 208 205 197 188 191 192 184 179 180 178 177 173 166 160 152 147 151 155 156 159 159 154 152 146 137 138 142 131 125
146 138 130 140 192 272 289 256 181 185 253 223 220 230 196 152 88 284 210 191 191 186 179 177 175 169 159 157 154 145 146 148 152 163 169 167 160 155 151 150 152 150 137 130
83 109 124 139 169 231 248 249 185 135 275 246 197 196 168 132 150 248 212 180 169 159 156 155 152 147 150 152 146 146 153 156 169 174 171 162 158 157 160 162 158 149 144 143
114 107 143 165 204 252 254 249 132 164 240 233 181 177 166 178 198 204 163 160 156 149 148 148 147 151 157 152 148 152 158 174 175 159 149 146 151 156 156 152 148 141 134 121
170 163 177 157 189 247 244 146 177 213 236 191 184 178 173 180 149 137 144 146 142 136 136 143 147 149 148 152 153 158 173 170 147 142 141 145 147 150 147 141 136 132 131 126
191 187 181 187 211 241 225 214 240 204 202 205 185 181 163 155 156 145 143 144 144 142 144 145 146 145 147 159 162 168 172 150 142 140 145 146 141 137 141 145 143 134 135 140
241 161 153 228 263 263 262 258 258 216 209 207 185 168 157 159 158 147 144 147 146 144 146 143 139 144 154 160 166 167 153 149 144 147 150 147 143 138 136 140 146 149 158 161
204 161 170 237 263 294 291 249 229 217 183 160 156 158 158 149 153 155 153 156 155 147 146 146 149 155 160 155 152 147 150 149 146 149 150 149 149 151 149 149 158 167 183 180
199 180 182 221 220 201 242 249 198 172 183 173 153 138 141 149 153 150 151 154 151 148 145 143 145 149 152 150 149 148 152 151 149 150 154 157 155 151 151 147 114 83 149 168
Height
1515 1520 1525 1523 1523 1525 1528 1532 1536 1534 1530 1532 1535 1536 1534 1534 1535 1537 1538 1540 1542 1544 1547 1549 1551 1552 1554 1556 1557 1558 1559 1560 1561 1561 1562 1562 1563 1563 1563 1562 1562 1562 1561 1561
1521 1524 1520 1519 1521 1524 1528 1533 1535 1534 1531 1533 1537 1536 1533 1533 1534 1535 1537 1539 1541 1543 1546 1548 1550 1552 1554 1556 1557 1559 1560 1561 1562 1562 1563 1563 1564 1564 1564 1564 1563 1563 1563 1562
1523 1522 1518 1520 1523 1526 1529 1533 1534 1535 1534 1534 1537 1539 1535 1533 1533 1535 1536 1538 1540 1542 1544 1547 1550 1552 1554 1556 1557 1559 1560 1561 1562 1563 1564 1564 1565 1565 1565 1565 1565 1564 1564 1564
1522 1519 1519 1521 1524 1525 1532 1527 1529 1533 1540 1545 1541 1551 1539 1534 1533 1533 1534 1536 1538 1541 1543 1546 1548 1551 1553 1556 1557 1559 1560 1561 1562 1563 1564 1565 1565 1566 1566 1566 1566 1566 1566 1565
1522 1519 1520 1523 1523 1523 1528 1526 1529 1534 1540 1546 1544 1550 1544 1535 1535 1532 1531 1533 1535 1538 1542 1545 1547 1550 1553 1555 1557 1559 1560 1561 1562 1563 1564 1565 1566 1566 1567 1567 1567 1567 1567 1566
1519 1518 1519 1520 1520 1522 1525 1530 1534 1540 1545 1554 1547 1551 1547 1536 1531 1528 1528 1530 1532 1536 1540 1543 1547 1550 1552 1555 1557 1559 1560 1561 1562 1564 1565 1566 1566 1567 1567 1568 1568 1568 1568 1567
1523 1520 1518 1518 1522 1525 1527 1539 1552 1555 1560 1558 1545 1547 1542 1525 1523 1523 1523 1526 1529 1533 1537 1541 1545 1548 1551 1554 1556 1558 1560 1561 1562 1564 1565 1566 1567 1567 1568 1568 1568 1568 1568 1568
1530 1531 1520 1518 1521 1526 1529 1536 1552 1560 1562 1556 1545 1547 1533 1520 1519 1519 1520 1523 1527 1531 1535 1538 1542 1546 1549 1552 1555 1557 1559 1561 1562 1564 1565 1566 1567 1568 1568 1568 1569 1569 1569 1569
1528 1529 1518 1516 1517 1521 1530 1536 1536 1548 1552 1556 1550 1540 1527 1518 1518 1518 1519 1521 1524 1528 1532 1536 1541 1544 1548 1551 1554 1556 1558 1560 1562 1563 1564 1566 1567 1567 1568 1569 1569 1570 1570 1570
1518 1526 1519 1518 1518 1521 1524 1530 1541 1548 1556 1559 1550 1543 1536 1523 1519 1518 1519 1520 1523 1527 1531 1535 1539 1543 1547 1550 1553 1555 1558 1560 1561 1563 1564 1565 1566 1567 1568 1569 1569 1570 1570 1570
1513 1524 1524 1521 1522 1525 1528 1532 1537 1545 1547 1556 1557 1545 1520 1518 1516 1517 1517 1519 1521 1525 1529 1533 1537 1541 1545 1549 1552 1554 1556 1558 1560 1562 1563 1565 1566 1567 1568 1569 1570 1570 1570 1570
1513 1523 1529 1523 1517 1516 1520 1525 1533 1543 1547 1548 1552 1542 1512 1512 1512 1514 1516 1518 1521 1524 1528 1532 1536 1540 1543 1547 1550 1553 1555 1557 1560 1562 1563 1564 1566 1567 1568 1569 1570 1570 1570 1570
1511 1522 1533 1532 1529 1522 1520 1522 1525 1532 1541 1548 1550 1537 1512 1511 1512 1513 1515 1517 1520 1523 1526 1530 1534 1538 1541 1545 1548 1551 1554 1556 1559 1561 1562 1564 1565 1566 1567 1568 1569 1570 1570 1570
1505 1518 1527 1532 1527 1521 1521 1521 1523 1529 1540 1542 1538 1528 1515 1512 1512 1512 1514 1516 1518 1522 1525 1528 1532 1536 1540 1543 1546 1549 1552 1555 1558 1560 1561 1563 1564 1566 1567 1568 1569 1569 1570 1570
1504 1516 1516 1516 1514 1515 1516 1517 1519 1523 1525 1531 1525 1521 1513 1509 1510 1510 1512 1514 1517 1520 1523 1526 1529 1533 1537 1541 1545 1548 1551 1554 1556 1558 1560 1562 1564 1565 1566 1567 1568 1569 1569 1570
1505 1512 1514 1515 1512 1514 1515 1514 1515 1516 1517 1519 1518 1515 1505 1506 1507 1508 1510 1512 1515 1517 1520 1523 1527 1531 1535 1539 1542 1545 1549 1552 1555 1557 1559 1561 1562 1564 1565 1566 1567 1568 1569 1569
1507 1512 1519 1522 1516 1514 1520 1510 1510 1511 1509 1511 1514 1508 1503 1505 1505 1505 1507 1509 1511 1514 1517 1521 1524 1528 1532 1536 1540 1543 1547 1550 1553 1555 1557 1559 1561 1562 1564 1565 1566 1567 1568 1568
1506 1512 1520 1523 1520 1527 1512 1499 1500 1503 1502 1502 1501 1499 1499 1500 1501 1503 1504 1506 1508 1511 1515 1519 1522 1527 1531 1534 1538 1542 1545 1548 1551 1553 1555 1557 1559 1561 1562 1563 1564 1566 1566 1567
1500 1509 1520 1526 1526 1520 1506 1498 1498 1501 1501 1496 1497 1496 1497 1499 1501 1502 1502 1503 1506 1509 1513 1516 1520 1525 1529 1532 1536 1540 1543 1546 1548 1551 1553 1555 1557 1559 1560 1561 1563 1564 1565 1566
1501 1505 1517 1524 1524 1524 1506 1493 1492 1497 1502 1491 1492 1493 1495 1498 1504 1501 1499 1501 1504 1508 1511 1515 1519 1523 1527 1530 1534 1537 1540 1543 1546 1549 1551 1553 1555 1557 1558 1559 1561 1562 1563 1564
1507 1511 1516 1521 1521 1513 1495 1491 1493 1506 1501 1488 1488 1490 1492 1494 1495 1496 1497 1500 1503 1506 1510 1514 1517 1521 1525 1528 1532 1535 1538 1541 1544 1547 1549 1552 1553 1555 1556 1558 1559 1560 1561 1562
1503 1509 1514 1518 1519 1511 1489 1490 1493 1492 1486 1486 1487 1488 1489 1491 1493 1495 1496 1498 1501 1505 1509 1512 1516 1519 1523 1527 1530 1533 1536 1539 1542 1545 1547 1549 1551 1553 1555 1556 1557 1559 1560 1560
1496 1496 1499 1501 1500 1489 1486 1486 1485 1485 1485 1485 1486 1487 1488 1490 1492 1493 1495 1498 1501 1504 1507 1511 1514 1518 1521 1525 1528 1531 1534 1537 1540 1543 1545 1547 1549 1551 1553 1554 1555 1556 1557 1558
1491 1490 1493 1494 1489 1485 1484 1483 1483 1484 1484 1484 1485 1486 1487 1488 1490 1492 1494 1497 1499 1502 1506 1509 1512 1516 1519 1523 1526 1529 1532 1535 1538 1540 1543 1545 1547 1549 1550 1552 1553 1554 1555 1556
1485 1487 1490 1490 1485 1482 1481 1481 1481 1482 1482 1483 1484 1485 1486 1487 1489 1491 1493 1496 1498 1501 1504 1508 1511 1514 1517 1521 1524 1527 1530 1533 1535 1538 1540 1542 1544 1546 1548 1549 1551 1552 1553 1554
1481 1482 1485 1484 1479 1480 1479 1479 1480 1480 1481 1482 1482 1484 1485 1487 1488 1490 1492 1495 1497 1500 1503 1506 1509 1512 1516 1519 1522 1525 1528 1530 1532 1535 1537 1539 1541 1543 1545 1546 1548 1549 1550 1551